TJS-15

Last updated on Mon Oct 20 2025 00:02:51 GMT+0000 (Coordinated Universal Time)

1 63157U 25045A 25292.75363082 .00000000 00000+0 00000+0 0 9990 2 63157 0.0233 75.8321 0003071 223.5576 94.7056 1.00266849 2345
UTC large
Height (km)
Speed (km/s)
/
Latitude / Longitude
Inclination (degrees)
Orbital Period (minutes)
Azimuth
Elevation
Range (km)
Doppler Factor

Next 0 passes for location: London (51.5072 / 0.1276)

Sorry there are no passes over London.